CAPE
138 28 10 77 138 93 0 23 65 45 0 0 0 0 2 81 104 0 0 0 0 117 1028 1768 2302 1939 2179 2140 2256 2026 1817 1960 2423 1911 1857 1720 1557 1505 1562 2297 2360 2280 2286 2161 2222 2204 2333 2117 2166
43 15 64 287 67 0 16 77 134 59 3 0 0 135 249 132 197 0 0 0 0 467 1281 1808 2574 2276 2319 2228 2227 2003 1817 2237 2125 2010 2014 2075 1380 1553 1819 1495 2019 2125 1970 2060 2167 2293 1999 1855 1917
14 33 46 34 5 0 13 119 185 84 3 31 195 135 154 74 0 0 0 0 159 1022 1377 1618 2222 2530 2382 2117 2223 2003 1814 2213 2088 1968 1974 1982 1450 1331 1284 1806 1742 1818 1900 2178 2158 2072 1919 1910 1806
14 42 79 213 7 0 25 33 73 73 22 122 110 104 65 26 0 27 0 114 632 1063 1315 1900 2164 2262 2192 2142 2243 1990 1977 2024 1971 1951 1923 1897 1723 1188 1656 1595 1853 1933 1870 1993 1929 1923 1748 1739 1762
52 113 72 83 22 4 59 213 111 97 278 120 134 69 28 29 18 0 68 327 647 939 1205 1368 1975 1912 2178 2248 2105 1743 1958 2042 1705 2039 1848 1681 1810 1676 1398 1631 1788 1431 1560 1767 1777 1717 1680 1898 1954
242 144 99 48 98 4 26 180 240 258 131 82 88 107 67 79 25 35 138 350 580 838 1236 1400 1843 2027 1924 1849 1896 1796 2010 1980 1733 1895 1827 1820 1869 1807 1647 1574 1543 1583 1384 1523 1582 1502 1833 2013 2209
163 118 105 46 27 33 1 34 356 289 136 63 90 107 148 64 26 106 176 363 737 1075 1314 1696 1549 1651 1884 1705 1939 1980 2021 1804 2001 1795 1872 1865 1889 1786 1812 1735 1721 1710 1568 1413 1343 1705 1939 2192 2320
143 143 35 22 83 35 0 52 160 295 124 66 80 43 80 71 113 215 332 609 863 1270 1476 1516 1409 1550 1431 1629 1777 2068 2033 2099 2052 1826 1914 1716 1710 1721 1666 2019 2036 1553 1454 1330 1581 1581 1789 2071 2290
119 32 13 4 45 26 59 168 94 194 96 264 287 120 22 139 134 131 349 529 748 1193 1321 1471 1501 1452 1441 1562 1704 1918 2097 2089 2157 1832 1920 1883 1542 1350 1444 1851 1792 1754 1570 1408 1334 1281 1918 2048 2094
82 19 2 72 51 16 50 29 110 204 190 100 133 37 120 136 97 116 125 131 273 888 1004 1200 1102 798 1100 1429 1609 1698 1845 1801 1649 1548 1566 1415 1355 1389 1458 1797 1767 1736 1895 1487 1580 1117 1508 818 983
47 30 12 239 129 36 58 46 154 221 231 85 27 72 120 117 67 94 14 0 124 341 772 839 725 641 1013 1349 1537 1466 1509 1498 1363 1360 940 1189 1204 1457 1586 1587 1553 1716 971 541 726 335 491 952 1065
1 5 26 137 237 74 22 80 1 96 269 112 41 113 98 91 77 76 52 74 203 345 651 652 334 832 1146 1172 1161 1329 1393 1295 1204 905 763 1013 1079 1231 1418 1469 1292 1312 578 16 162 482 565 762 925
4 0 3 125 42 43 92 214 229 242 513 179 54 96 59 61 62 60 8 41 169 306 517 452 355 694 854 984 1009 1149 1166 1095 980 353 456 810 829 639 824 871 1028 952 615 140 331 569 768 900 1130
0 0 0 88 63 182 181 102 166 482 529 272 85 43 46 61 60 48 13 0 62 158 264 222 243 393 553 670 790 878 867 821 768 524 475 659 121 222 410 406 321 517 486 249 613 608 688 967 973
0 0 0 25 111 194 259 185 205 417 458 207 119 38 46 88 69 70 37 0 4 79 171 104 143 349 402 375 478 518 623 646 811 698 689 657 389 187 289 400 344 449 457 417 526 618 733 738 497
0 0 0 86 174 265 242 87 235 547 708 320 150 97 32 85 76 76 52 0 34 8 114 52 132 302 368 217 275 407 555 680 812 705 650 483 493 268 144 389 417 386 167 395 394 586 541 612 363
0 0 0 85 322 366 419 126 427 466 523 648 250 146 78 53 39 38 114 2 12 0 31 19 127 272 392 298 240 399 592 671 701 707 639 405 536 571 208 304 394 292 181 330 667 567 391 389 413
0 0 0 0 175 341 436 237 328 534 549 589 326 205 126 78 67 61 106 3 0 0 0 0 98 231 326 330 473 547 612 728 681 717 588 451 398 896 571 423 291 268 172 333 557 537 374 348 335
0 0 0 0 0 303 271 188 205 402 444 404 433 258 168 126 102 67 43 105 0 3 0 0 46 170 335 445 474 643 714 668 649 626 701 386 556 911 824 572 499 545 371 421 503 570 394 426 246
0 0 0 0 0 0 0 13 228 235 629 556 364 330 243 168 120 102 86 44 0 0 3 0 36 122 278 481 562 647 644 690 723 605 664 825 1035 975 826 648 699 767 602 718 641 634 450 591 189
0 0 0 0 0 300 71 80 201 212 472 638 611 346 235 174 135 136 172 136 26 0 77 0 24 104 279 457 450 518 664 590 666 707 500 863 1031 972 950 768 695 722 669 784 732 546 459 228 259
0 0 0 0 0 0 19 0 54 294 273 636 531 518 303 143 133 128 174 74 179 23 38 80 48 70 235 439 354 481 585 537 503 554 601 671 1097 1036 988 874 629 527 661 563 508 569 447 181 232
0 0 0 0 0 0 0 0 0 181 328 257 619 579 424 258 206 130 171 106 119 35 47 90 75 48 186 356 262 295 465 429 444 515 466 636 905 1132 906 800 783 726 512 658 889 762 696 593 587
0 0 0 0 0 0 0 0 0 0 18 108 89 286 451 335 297 230 129 109 146 104 5 55 97 88 115 194 211 114 251 467 427 496 491 535 838 1104 1009 673 765 891 865 662 648 1110 877 772 1238
0 0 0 0 0 0 0 0 0 0 0 0 0 5 75 233 329 326 238 140 129 163 150 137 104 125 102 96 97 12 22 323 527 428 373 460 600 1031 1144 980 865 853 826 902 773 1066 1039 1078 1258
0 0 0 0 0 0 0 0 0 0 0 0 0 0 0 56 257 199 357 249 174 175 200 175 143 102 193 92 1 45 0 74 467 418 252 529 595 713 946 1119 837 924 926 912 839 1014 1125 1187 1033
0 0 0 0 0 0 0 0 0 0 0 1 17 1 0 0 140 228 235 399 292 244 279 227 151 83 155 236 68 0 0 0 223 364 233 289 537 715 860 1021 949 1000 1050 1034 962 951 1158 1248 1284
0 0 0 0 0 0 0 0 0 0 0 13 60 61 9 9 26 217 265 299 361 336 289 322 226 171 183 294 198 72 0 0 0 106 125 242 452 726 794 909 993 1068 1152 1189 909 926 1013 1199 1044
0 0 0 0 0 0 0 0 0 1 3 0 77 144 68 51 76 76 171 265 290 194 117 190 290 279 210 362 301 132 42 0 0 0 10 293 465 677 716 660 872 1034 1070 1087 1095 887 996 1042 1022
0 0 0 0 0 0 0 0 0 9 14 2 247 228 260 226 258 116 110 239 233 217 185 142 213 292 298 244 320 254 134 38 0 0 0 3 244 431 797 915 719 1088 1041 1045 1074 1084 1251 1082 1106
CIN
-3 -28 -25 -17 -1 -1 0 -21 -32 -42 0 0 0 0 -11 -101 -128 0 0 0 0 -114 -7 -2 0 0 0 0 0 0 -1 0 0 0 -1 -4 -8 -10 -5 0 0 0 0 0 0 0 0 0 0
-18 -52 -9 -3 0 0 -2 -17 -60 -26 -23 0 -3 -39 -31 -93 -70 0 0 0 0 -81 -2 -2 0 -1 0 0 0 0 -2 0 0 0 0 0 -2 0 0 0 0 0 0 0 0 0 0 0 -1
-38 -39 -4 -5 -3 0 -23 -29 -17 -21 -56 -97 -41 -36 -65 -109 0 0 0 0 -143 -33 -3 -1 0 0 0 0 0 0 -1 0 0 0 -1 0 0 0 0 0 0 0 0 0 0 0 0 0 -7
-71 -23 -6 -2 -9 0 -4 -12 -33 -50 -120 -80 -134 -124 -68 -180 0 -241 0 -162 -68 -26 -4 0 0 0 0 0 0 0 0 0 0 0 0 0 0 0 0 -3 0 0 0 0 0 0 -5 -11 -10
-42 -10 -15 -12 -18 -1 -21 -16 -16 -45 -46 -60 -120 -53 -43 -186 -164 0 -199 -115 -68 -29 -5 -1 0 0 0 0 0 0 0 0 0 0 0 -2 0 0 0 0 0 0 0 0 0 0 -7 -8 -7
-20 -14 -12 -13 -18 -35 -44 -20 -35 -27 -72 -82 -42 -34 -67 -121 -178 -186 -151 -106 -59 -48 -2 -1 0 0 0 0 0 0 0 0 0 0 0 0 0 0 0 0 -1 0 0 0 0 -3 -5 -8 -8
-31 -34 -7 -17 -44 -77 -38 -31 -17 -20 -57 -62 -46 -30 -107 -127 -107 -124 -103 -96 -35 -11 -7 -1 -1 -2 0 0 0 0 0 0 0 0 0 0 0 0 0 0 0 0 0 0 -5 -3 -7 -5 -6
-44 -36 -54 -28 -12 -56 -1 -17 -7 -1 -21 -37 -48 -66 -161 -193 -80 -48 -40 -23 -8 0 -1 -1 -2 -1 -1 0 0 0 0 0 0 0 0 0 0 0 0 -1 0 0 0 -1 -7 -9 -10 -8 -6
-59 -74 -54 -36 -8 -17 -10 -4 0 -29 -42 -27 -54 -144 -248 -136 -83 -72 -13 -2 0 0 0 0 0 -1 -1 -2 -2 -2 0 0 0 -2 -1 -1 -2 -10 -3 -3 0 0 0 -5 -13 -20 -8 -11 -12
-81 -91 -36 -29 -59 -27 -108 -26 -2 -6 -22 -59 -88 -220 -128 -127 -121 -111 -116 -125 -71 -4 -2 -1 -2 -20 -8 -1 -1 -1 -1 0 -1 -2 -2 -4 -4 -5 -12 -5 0 0 0 -5 -12 -47 -44 -94 -94
-77 -82 -48 -46 -58 -89 -95 -74 -9 -43 -20 -80 -188 -153 -121 -142 -152 -135 -74 0 -173 -77 -14 -15 -26 -41 -17 0 -1 -2 -2 -5 -14 -6 -21 -10 -15 -18 -3 -1 -3 -4 -49 -73 -67 -56 -168 -135 -129
-2 -56 -61 -72 -65 -98 -77 -84 0 -41 -42 -106 -18 -113 -129 -154 -158 -155 -174 -147 -126 -93 -34 -32 -85 -25 -8 -3 -14 -15 -12 -20 -25 -30 -24 -28 -30 -39 -18 -3 -10 -17 -69 -113 -53 -192 -166 -143 -138
-22 0 -4 -57 -104 -95 -57 -43 -51 -46 -13 -75 -125 -74 -103 -121 -123 -130 -52 -141 -113 -100 -70 -64 -91 -41 -35 -23 -27 -38 -42 -38 -38 -38 -30 -41 -58 -72 -65 -42 -35 -39 -62 -223 -204 -181 -152 -144 -120
0 0 0 -96 -84 -39 -59 -69 -46 -9 -25 -45 -90 -133 -131 -111 -112 -89 -33 0 -157 -141 -135 -112 -122 -89 -66 -63 -49 -57 -67 -63 -59 -60 -37 -49 -69 -102 -178 -167 -149 -103 -64 -90 -160 -87 -91 -143 -138
0 0 0 -209 -104 -65 -49 -64 -55 -49 -44 -82 -128 -48 -133 -143 -79 -71 -58 0 -15 -182 -144 -176 -146 -101 -88 -97 -86 -79 -79 -68 -56 -49 -40 -59 -62 -150 -99 -167 -169 -50 -82 -22 -29 -46 -52 -49 -38
0 0 0 -160 -96 -55 -51 -48 -127 -96 -78 -99 -110 -65 -98 -120 -82 -60 -45 0 -164 -64 -155 -182 -157 -116 -96 -120 -123 -100 -80 -64 -49 -49 -52 -67 -55 -52 -17 -101 -166 -83 -16 -138 -121 -34 -16 -25 -46
0 0 0 -105 -77 -47 -51 -74 -118 -169 -111 -59 -98 -115 -70 -140 -114 -78 -33 -4 -83 0 -109 -86 -174 -112 -103 -98 -82 -93 -58 -53 -44 -39 -38 -16 -55 -69 -19 -29 -85 -82 -19 -105 -160 -73 -16 -26 -28
0 0 0 0 -83 -54 -51 -91 -138 -130 -148 -125 -121 -124 -93 -148 -128 -84 -47 -2 0 0 0 0 -123 -99 -83 -20 -21 -21 -42 -36 -43 -30 -23 -59 -37 -102 -63 -131 -81 -193 -224 -21 -26 -61 -71 -110 -14
0 0 0 0 -1 -51 -58 -88 -114 -131 -129 -164 -135 -140 -157 -143 -104 -63 -39 -25 0 -103 0 0 -98 -93 -49 -34 -37 -27 -44 -39 -68 -46 -24 -19 -35 -58 -42 -83 -28 -168 -195 -181 -82 -49 -17 -90 -40
0 0 0 0 0 0 0 -32 -138 -151 -103 -111 -159 -158 -137 -125 -79 -46 -29 -23 0 0 -5 0 -118 -96 -86 -49 -49 -50 -44 -58 -38 -59 -26 -107 -50 -39 -47 -73 -53 -71 -58 -55 -99 -64 -145 -47 -41
0 0 0 0 0 -95 -136 -64 -168 -180 -127 -91 -91 -111 -119 -118 -86 -61 -18 -23 -14 0 -78 0 -62 -131 -103 -59 -51 -38 -33 -24 -33 -35 -28 -34 -43 -37 -107 -77 -39 -41 -44 -40 -46 -44 -98 -42 -152
0 0 0 0 0 0 -57 0 -192 -157 -186 -112 -114 -103 -117 -131 -83 -66 -30 -23 -26 -109 -86 -93 -63 -138 -96 -56 -72 -65 -51 -32 -44 -27 -10 -48 -45 -31 -29 -32 -20 -19 -32 -28 -24 -90 -42 -120 -161
0 0 0 0 0 0 0 0 0 -203 -175 -230 -113 -109 -106 -144 -111 -93 -56 -46 -66 -32 -186 -100 -105 -122 -102 -81 -70 -110 -73 -44 -35 -30 -25 -19 -32 -28 -23 -26 -85 -15 -153 -32 -101 -50 -40 -88 -126
0 0 0 0 0 0 0 0 0 0 -91 -91 -68 -72 -76 -115 -143 -131 -93 -50 -35 -29 -12 -111 -179 -136 -123 -120 -94 -102 -113 -68 -50 -49 -25 -39 -32 -24 -33 -40 -35 -28 -36 -30 -154 -48 -46 -89 -119
0 0 0 0 0 0 0 0 0 0 0 0 0 -32 -146 -122 -66 -82 -106 -142 -74 -33 -12 -3 -134 -129 -121 -124 -163 -61 -175 -89 -43 -40 -69 -38 -101 -28 -16 -25 -22 -63 -42 -22 -88 -37 -35 -137 -105
0 0 0 0 0 0 0 0 0 0 0 0 0 0 0 -159 -107 -148 -106 -108 -103 -64 -27 -14 -6 -92 -6 -21 -10 -174 0 -146 -67 -58 -82 -73 -31 -74 -128 -23 -36 -30 -42 -33 -27 -42 -30 -108 -135
0 0 0 0 0 0 0 0 0 0 0 -39 -243 -26 0 0 -325 -222 -151 -107 -102 -64 -39 -41 -21 -54 -7 -2 -15 0 0 0 -100 -70 -90 -94 -68 -148 -145 -54 -38 -98 -43 -32 -27 -83 -46 -33 -92
0 0 0 0 0 0 0 0 0 0 0 -218 -253 -271 -257 -393 -410 -247 -153 -90 -101 -77 -57 -30 -22 -14 -6 -5 -3 -24 0 0 0 -66 -90 -128 -72 -41 -90 -78 -39 -35 -109 -32 -31 -66 -35 -28 -65
0 0 0 0 0 0 0 0 0 0 0 0 -159 -206 -302 -434 -438 -306 -197 -89 -45 -96 -120 -65 -35 -18 -19 -9 -5 -8 -16 0 0 0 -100 -238 -88 -44 -34 -96 -127 -47 -43 -83 -30 -126 -41 -30 -53
0 0 0 0 0 0 0 0 0 -1 -32 0 -33 -84 -127 -214 -226 -299 -303 -182 -134 -120 -104 -99 -44 -26 -19 -15 -8 -4 -6 -32 0 0 0 -19 -241 -96 -57 -35 -97 -126 -121 -98 -67 -23 -91 -94 -79
Wind_Speed
3 nan nan nan 4 nan nan nan nan nan nan nan nan nan nan nan 15 nan nan nan nan 8 11 9 10 11 11 11 13 12 11 11 10 9 9 9 7 5 4 1 1 2 3 6 5 4 5 6 9
nan nan nan 6 nan nan nan nan 17 nan nan nan nan 5 11 8 9 nan nan nan nan 5 8 6 9 12 13 11 10 10 11 11 11 11 10 8 5 3 3 1 3 5 2 3 5 3 2 2 11
nan nan nan nan nan nan nan 21 23 nan nan nan 7 8 10 nan nan nan nan nan 6 4 7 7 9 12 13 11 12 12 14 13 16 16 13 10 5 2 1 2 3 3 3 2 3 3 2 6 10
nan nan nan 11 nan nan nan nan nan nan nan 9 2 4 nan nan nan nan nan 5 4 4 6 7 8 9 11 13 13 14 14 15 17 19 15 12 8 6 5 3 3 1 2 3 2 4 4 7 13
nan 4 nan nan nan nan nan 20 16 nan 12 5 7 nan nan nan nan nan nan 3 3 3 6 5 7 8 11 13 13 13 15 15 15 16 14 13 13 9 8 4 1 4 5 4 5 6 8 11 12
3 4 nan nan nan nan nan 26 27 20 14 nan nan 5 nan nan nan nan 3 2 1 2 6 6 8 12 12 12 11 13 16 14 13 12 14 13 12 9 7 6 3 4 7 8 8 8 9 10 7
3 5 6 nan nan nan nan nan 29 26 14 nan nan 9 6 nan nan 2 1 1 0 2 7 6 8 10 11 11 13 15 13 12 11 12 14 12 9 9 9 7 5 4 7 7 8 7 8 8 4
4 7 nan nan nan nan nan nan 20 23 20 nan nan nan nan nan 2 2 2 2 2 3 6 6 9 8 7 12 14 13 13 13 11 10 14 12 9 9 10 8 7 5 4 3 5 5 4 4 1
5 nan nan nan nan nan nan 19 nan 25 nan 11 10 4 nan 4 1 3 1 1 3 4 5 6 8 8 9 12 13 13 16 9 7 10 11 9 11 10 9 10 6 5 5 5 3 3 3 7 3
nan nan nan nan nan nan nan nan 22 19 9 19 13 nan 9 9 nan 1 3 3 5 5 5 7 8 10 11 14 12 12 15 12 9 9 7 7 8 10 11 9 5 5 5 4 2 4 4 6 6
nan nan nan 11 15 nan nan nan 18 30 18 nan nan nan 8 8 nan nan nan nan 6 7 6 8 9 11 12 15 15 15 13 9 7 6 8 5 3 7 10 11 10 10 5 11 8 7 6 5 5
nan nan nan 16 17 nan nan nan nan nan 17 2 nan 9 nan nan nan nan nan nan 5 7 6 8 9 11 10 15 15 13 11 14 9 11 9 5 3 3 7 10 7 5 9 nan 11 10 13 12 12
nan nan nan 13 nan nan nan 3 4 20 18 3 nan nan nan nan nan nan nan nan 7 5 4 6 9 10 10 14 15 15 16 13 12 11 12 12 8 4 6 9 6 9 8 12 12 11 13 15 19
nan nan nan nan nan 12 14 2 2 12 15 3 nan nan nan nan nan nan nan nan nan 7 5 4 10 9 11 12 15 13 14 15 12 15 16 17 13 9 16 11 9 9 9 10 12 13 13 17 22
nan nan nan nan 8 9 5 4 8 5 22 3 6 nan nan nan nan nan nan nan nan nan 6 5 8 9 14 12 15 13 14 15 17 16 15 15 16 14 13 14 12 11 11 9 10 12 13 14 19
nan nan nan nan 5 7 8 nan 16 12 16 7 7 nan nan nan nan nan nan nan nan nan 9 nan 7 11 14 13 13 13 16 16 17 16 16 16 16 13 14 15 11 11 12 11 12 12 13 12 16
nan nan nan nan 5 14 10 15 20 19 16 8 11 8 nan nan nan nan 4 nan nan nan nan nan 6 9 12 13 14 14 13 20 18 14 16 14 17 14 12 13 12 11 14 15 13 13 13 14 13
nan nan nan nan 11 17 12 16 16 17 11 6 10 8 8 nan nan nan 5 nan nan nan nan nan nan 7 9 11 12 10 11 18 19 15 16 16 16 18 14 14 13 14 13 14 15 14 14 15 14
nan nan nan nan nan 19 14 14 12 14 12 6 9 5 7 7 1 nan nan 4 nan nan nan nan nan 7 8 11 10 10 13 14 18 16 15 17 14 13 15 14 11 11 11 11 13 16 16 17 15
nan nan nan nan nan nan nan nan 13 8 13 15 8 5 5 3 0 1 nan nan nan nan nan nan nan 8 8 9 11 11 11 13 15 16 16 17 16 11 12 13 13 13 11 10 10 15 17 18 16
nan nan nan nan nan 29 nan nan 21 18 17 16 13 7 6 1 4 3 3 3 nan nan nan nan nan 6 9 6 10 14 13 14 15 17 18 16 16 12 10 9 9 11 14 12 11 13 14 16 17
nan nan nan nan nan nan nan nan nan 14 13 13 15 6 3 5 8 2 5 nan 4 nan nan nan nan nan 8 7 10 10 9 9 13 14 14 15 15 13 13 10 7 8 9 11 14 11 13 11 16
nan nan nan nan nan nan nan nan nan 16 10 8 11 9 9 11 8 1 5 5 6 nan nan nan nan nan 8 7 9 11 10 10 9 10 13 11 14 16 14 10 8 6 7 10 12 11 9 13 12
nan nan nan nan nan nan nan nan nan nan nan 35 nan 16 16 13 14 6 6 9 7 11 nan nan nan nan 13 8 9 11 10 10 9 9 11 12 12 14 14 14 12 10 7 7 10 11 11 11 13
nan nan nan nan nan nan nan nan nan nan nan nan nan nan nan 12 18 13 2 5 7 6 8 11 14 14 15 nan nan nan nan 10 8 7 6 8 9 11 13 11 13 12 11 9 8 9 11 11 11
nan nan nan nan nan nan nan nan nan nan nan nan nan nan nan nan 3 8 11 6 4 7 9 10 13 14 16 nan nan nan nan nan 10 8 7 6 7 8 7 8 10 12 11 12 10 11 13 13 12
nan nan nan nan nan nan nan nan nan nan nan nan nan nan nan nan 4 5 8 6 5 3 7 7 13 nan 16 15 nan nan nan nan 11 9 8 6 4 5 3 5 6 10 11 11 10 11 13 13 13
nan nan nan nan nan nan nan nan nan nan nan nan nan nan nan nan nan 9 10 14 10 7 10 14 14 13 16 17 17 nan nan nan nan 14 9 7 5 2 1 1 4 8 10 11 10 11 14 16 15
nan nan nan nan nan nan nan nan nan nan nan nan nan 44 nan nan nan nan 23 26 25 21 13 14 15 16 19 20 20 18 nan nan nan nan nan 10 9 7 4 3 0 3 7 9 10 11 13 16 19
nan nan nan nan nan nan nan nan nan nan nan nan 49 48 49 49 48 45 44 41 35 30 25 20 19 18 21 23 25 23 24 nan nan nan nan nan 12 12 8 7 6 2 4 7 8 10 12 14 17
Wind_Direction
342 nan nan nan 16 nan nan nan nan nan nan nan nan nan nan nan 86 nan nan nan nan 72 81 68 42 32 26 24 21 20 26 30 18 356 351 328 316 305 294 280 22 58 140 170 157 138 151 147 140
nan nan nan 6 nan nan nan nan 145 nan nan nan nan 12 73 66 89 nan nan nan nan 40 83 77 44 33 23 25 30 42 48 40 30 16 6 347 294 274 295 306 32 29 93 164 154 147 140 78 155
nan nan nan nan nan nan nan 159 146 nan nan nan 101 164 79 nan nan nan nan nan 351 30 78 51 22 18 15 27 41 56 50 39 29 26 22 5 357 44 38 75 350 357 18 241 178 153 112 107 119
nan nan nan 0 nan nan nan nan nan nan nan 144 91 158 nan nan nan nan nan 358 2 41 71 22 8 1 19 34 47 44 46 37 28 34 41 49 61 80 97 102 345 286 220 235 183 145 143 143 133
nan 285 nan nan nan nan nan 162 144 nan 165 166 109 nan nan nan nan nan nan 32 3 88 76 45 11 16 32 42 49 45 41 32 27 43 55 66 75 71 90 105 15 270 226 188 168 158 150 148 130
294 296 nan nan nan nan nan 181 169 153 158 nan nan 184 nan nan nan nan 326 61 8 48 87 68 26 34 39 54 45 34 30 31 36 47 61 68 82 90 89 86 61 24 152 154 161 160 157 157 154
287 305 307 nan nan nan nan nan 166 163 172 nan nan 177 146 nan nan 106 278 4 299 109 95 94 78 55 41 35 24 23 26 29 40 46 54 67 74 86 84 65 83 93 133 154 170 164 174 168 177
281 296 nan nan nan nan nan nan 192 167 163 nan nan nan nan nan 348 179 198 156 177 146 104 94 91 99 85 55 19 16 30 27 27 51 53 53 64 69 85 97 88 100 121 132 137 152 170 171 183
235 nan nan nan nan nan nan 238 nan 139 nan 160 127 63 nan 346 282 213 224 147 146 131 108 102 96 96 82 65 40 32 30 28 42 49 54 84 87 89 99 102 100 119 139 132 120 150 171 188 205
nan nan nan nan nan nan nan nan 164 166 161 181 219 nan 332 324 nan 28 34 60 38 54 105 94 86 82 74 71 56 61 63 108 112 87 96 92 89 93 96 93 97 118 162 148 182 171 188 163 131
nan nan nan 282 301 nan nan nan 189 149 167 nan nan nan 342 1 nan nan nan nan 66 56 97 92 87 86 71 70 62 72 74 83 91 76 106 104 116 115 111 115 121 123 131 120 128 134 108 102 87
nan nan nan 288 311 nan nan nan nan nan 168 187 nan 340 nan nan nan nan nan nan 79 54 88 98 97 90 76 78 74 71 76 71 89 77 70 92 116 170 138 136 126 116 118 nan 109 100 92 93 101
nan nan nan 295 nan nan nan 77 342 166 157 197 nan nan nan nan nan nan nan nan 122 87 85 91 101 93 74 83 79 78 81 80 78 77 74 80 96 94 146 148 144 124 112 103 103 100 102 98 108
nan nan nan nan nan 301 348 63 67 165 147 206 nan nan nan nan nan nan nan nan nan 109 87 101 96 88 75 85 85 77 78 78 79 72 75 87 87 91 92 115 130 120 101 85 97 107 107 96 99
nan nan nan nan 305 288 263 83 129 353 114 85 320 nan nan nan nan nan nan nan nan nan 115 88 94 91 86 83 85 84 72 82 85 81 78 81 88 108 96 106 115 118 107 99 101 105 103 104 107
nan nan nan nan 262 182 184 nan 100 100 117 57 22 nan nan nan nan nan nan nan nan nan 113 nan 90 87 89 88 86 85 88 88 86 85 86 89 93 95 114 91 109 111 112 106 113 114 110 123 117
nan nan nan nan 157 202 175 159 145 124 135 67 32 354 nan nan nan nan 109 nan nan nan nan nan 120 81 87 94 92 87 89 97 93 91 87 87 100 109 111 107 112 108 112 114 122 129 126 120 115
nan nan nan nan 198 182 203 150 164 139 137 18 0 12 9 nan nan nan 77 nan nan nan nan nan nan 113 105 113 112 111 111 105 103 100 97 92 94 108 116 107 110 108 112 120 125 131 122 120 121
nan nan nan nan nan 206 208 166 170 160 148 135 112 51 29 24 329 nan nan 140 nan nan nan nan nan 148 137 129 124 123 111 107 110 105 98 97 93 96 117 119 120 109 115 124 122 119 110 111 117
nan nan nan nan nan nan nan nan 212 206 179 147 104 111 83 12 290 158 nan nan nan nan nan nan nan 152 115 136 130 127 125 122 124 123 113 105 107 103 96 107 123 122 123 117 108 117 118 114 113
nan nan nan nan nan 205 nan nan 216 215 209 201 168 168 190 257 26 180 232 125 nan nan nan nan nan 145 114 142 158 159 162 150 145 129 120 109 107 106 106 96 101 112 121 116 104 113 126 127 132
nan nan nan nan nan nan nan nan nan 219 211 210 192 185 143 211 183 159 214 nan 135 nan nan nan nan nan 147 172 170 168 154 150 133 127 120 114 109 110 115 107 106 101 120 116 114 112 122 133 137
nan nan nan nan nan nan nan nan nan 205 197 155 164 147 128 147 156 141 201 194 179 nan nan nan nan nan 194 187 170 171 174 163 159 146 121 120 120 116 115 121 121 127 126 121 118 124 134 140 143
nan nan nan nan nan nan nan nan nan nan nan 189 nan 173 146 122 137 130 203 225 212 202 nan nan nan nan 197 208 191 175 177 180 175 163 137 126 126 117 117 129 133 136 143 132 127 131 130 146 156
nan nan nan nan nan nan nan nan nan nan nan nan nan nan nan 157 140 157 183 261 269 245 207 193 214 195 197 nan nan nan nan 194 173 164 156 139 127 112 110 122 129 135 145 148 150 151 145 146 163
nan nan nan nan nan nan nan nan nan nan nan nan nan nan nan nan 174 160 163 190 224 247 214 190 203 206 214 nan nan nan nan nan 187 178 182 170 131 105 109 126 133 131 143 149 159 165 154 158 155
nan nan nan nan nan nan nan nan nan nan nan nan nan nan nan nan 88 259 230 200 222 269 269 229 200 nan 219 222 nan nan nan nan 197 203 200 206 203 138 100 110 139 141 139 145 158 161 154 162 163
nan nan nan nan nan nan nan nan nan nan nan nan nan nan nan nan nan 212 216 215 217 232 237 234 218 204 214 224 226 nan nan nan nan 207 213 223 235 243 256 81 143 159 141 139 152 168 166 167 168
nan nan nan nan nan nan nan nan nan nan nan nan nan 211 nan nan nan nan 201 220 205 212 221 237 236 229 216 222 225 226 nan nan nan nan nan 224 226 248 266 284 287 158 155 146 150 164 176 174 172
nan nan nan nan nan nan nan nan nan nan nan nan 225 219 221 220 215 214 214 218 221 212 211 221 229 228 227 219 222 224 225 nan nan nan nan nan 233 231 246 262 274 238 192 181 158 151 170 180 182